Flag for Germany Weather past 2 weeks in Sankt Augustin, North Rhine-Westphalia, Germany

Now
55 °F

Clear.


Feels Like: 55 °F
Forecast: 46 / 60 °F
Wind: 1 mph from South

Location: Koeln / Bonn

Current Time: Oct 20, 2014 at 8:30:32 PM

Latest Report: Oct 20, 2014 at 7:50 PM


Visibility: 10 mi

Pressure: 30.01 "Hg

Humidity: 82%

Dew point: 50 °F

Location of Sankt AugustinLocation

Historic Weather in Sankt Augustin — Graph

°F

Sankt Augustin temperature yesterday

Maximum temperature yesterday: 75 °F (at 1:50 PM)
Minimum temperature yesterday: 55 °F (at 7:20 AM)
Average temperature yesterday: 64 °F

Past Weeks' High & Low Weather Summary

 TemperatureHumidityPressure
High75 °F (Oct 19, 1:50 PM)100% (Oct 6, 1:20 AM)30.12 "Hg (Oct 6, 1:20 AM)
Low45 °F (Oct 12, 7:50 AM)46% (Oct 14, 2:50 PM)29.53 "Hg (Oct 7, 8:50 AM)
Average58 °F83%29.85 "Hg
* Reported Oct 5 7:20 PM — Oct 20 7:20 PM, Sankt Augustin, Weather by CustomWeather, © 2014

Note: Actual official high and low records may vary slightly from our data, if they occured in-between our weather recording intervals... More about our weather records

Advertising

Sankt Augustin weather history for previous 24 hours

 ConditionsComfort  
Time TempWeatherWind HumidityBarometerVisibility
7:20 PM
Oct 20
55 °FScattered clouds.2 mph82%30.01 "HgN/A
6:50 PM55 °FScattered clouds.6 mph82%30.01 "HgN/A
6:20 PM57 °FScattered clouds.6 mph72%29.98 "HgN/A
5:50 PM59 °FScattered clouds.5 mph72%30.01 "HgN/A
5:20 PM61 °FScattered clouds.8 mph68%30.01 "HgN/A
4:50 PM61 °FBroken clouds.9 mph68%30.01 "HgN/A
4:20 PM61 °FBroken clouds.10 mph68%30.04 "HgN/A
3:50 PM63 °FBroken clouds.12 mph64%30.04 "HgN/A
3:20 PM61 °FPartly sunny.12 mph72%30.04 "HgN/A
2:50 PM61 °FBroken clouds.10 mph72%30.04 "HgN/A
2:20 PM59 °FPartly sunny.10 mph72%30.07 "HgN/A
1:50 PM59 °FPartly sunny.13 mph72%30.07 "HgN/A
1:20 PM61 °FBroken clouds.14 mph68%30.07 "HgN/A
12:50 PM59 °FBroken clouds.12 mph72%30.07 "HgN/A
12:20 PM59 °FLight rain. Broken clouds.10 mph72%30.07 "HgN/A
11:50 AM59 °FLight rain. Partly sunny.10 mph77%30.07 "HgN/A
11:20 AM59 °FBroken clouds.12 mph77%30.07 "HgN/A
10:50 AM59 °FPartly sunny.12 mph77%30.07 "HgN/A
10:20 AM59 °FBroken clouds.12 mph77%30.07 "HgN/A
9:50 AM59 °FPartly sunny.9 mph77%30.07 "HgN/A
9:20 AM57 °FPartly sunny.9 mph82%30.07 "HgN/A
8:50 AM57 °FPassing clouds.8 mph82%30.07 "HgN/A
8:20 AM57 °FPartly cloudy.8 mph82%30.07 "HgN/A
7:50 AM57 °FPassing clouds.10 mph82%30.07 "HgN/A
7:20 AM57 °FPassing clouds.9 mph82%30.07 "HgN/A
6:50 AM55 °FPassing clouds.9 mph82%30.04 "HgN/A
5:20 AM57 °FClear.8 mph77%30.04 "Hg10 mi
4:50 AM57 °FClear.10 mph77%30.04 "Hg10 mi
4:20 AM59 °FClear.12 mph77%30.04 "Hg10 mi
3:50 AM59 °FClear.13 mph77%30.07 "Hg10 mi
3:20 AM59 °FClear.13 mph77%30.07 "Hg10 mi
2:50 AM59 °FClear.13 mph82%30.07 "Hg10 mi
2:20 AM59 °FClear.12 mph82%30.07 "Hg10 mi
1:50 AM59 °FClear.14 mph77%30.07 "Hg10 mi
1:20 AM59 °FClear.14 mph82%30.07 "Hg10 mi
12:50 AM59 °FClear.13 mph82%30.07 "Hg10 mi
12:20 AM61 °FClear.12 mph77%30.07 "Hg10 mi
11:50 PM
Oct 19
61 °FClear.10 mph83%30.07 "Hg10 mi
11:20 PM61 °FClear.13 mph88%30.04 "Hg10 mi
10:50 PM63 °FScattered showers. Partly cloudy.13 mph88%30.04 "HgN/A
10:20 PM63 °FRain showers. Partly cloudy.15 mph88%30.04 "Hg6 mi
9:50 PM64 °FRain showers. Partly cloudy.10 mph88%30.01 "Hg4 mi
9:20 PM66 °FSprinkles. Partly cloudy.12 mph78%30.01 "HgN/A
8:50 PM66 °FScattered showers. Passing clouds.10 mph73%29.98 "HgN/A
8:20 PM66 °FPassing clouds.10 mph78%30.01 "HgN/A
Weather by CustomWeather, © 2014

See weather overviewHow to use our weather pages